Date String (YYYY-MM-DD hh:mm:ss) UTC,Instrument flags,Ambient pressure (hPa),Sample flow (lpm),Bypass flow (lpm),Sample temperature (°C),Ambient temperature (°C),ASC tube jacket temperature (°C),LED temperature (°C),Box temperature (°C),Sample RH (%),Span deviation,Mass concentration (μg/m³),Mass concentration (μg/m³),Mass concentration (μg/m³)
DateTimeUTC,F1_M11,P_M11,Q1_M11,Q2_M11,T1_M11,T2_M11,T3_M11,T4_M11,T5_M11,U1_M11,ZSPAN_M11,X0_M11,X2_M11,X1_M11
2023-04-27 09:00:00,,0826.7,5.00,0.00,23.6,22.3,00.0,31.9,25.2,22.3,0000.0,0009.25,0004.11,0003.49
2023-04-27 09:01:00,,0826.7,5.00,0.00,23.6,22.3,00.0,31.9,25.2,22.4,0000.0,0009.33,0004.17,0003.55
2023-04-27 09:02:00,,0826.7,5.00,0.00,23.6,22.3,00.0,31.9,25.2,22.4,0000.0,0009.39,0004.20,0003.60
2023-04-27 09:03:00,,0826.6,5.00,0.00,23.6,22.3,00.0,31.9,25.2,22.4,0000.0,0008.70,0004.24,0003.65
2023-04-27 09:04:00,,0826.6,5.00,0.00,23.6,22.3,00.0,31.9,25.3,22.4,0000.0,0008.41,0004.27,0003.68
2023-04-27 09:05:00,,0826.6,5.00,0.00,23.6,22.3,00.0,31.9,25.2,22.4,0000.0,0008.93,0004.34,0003.72
2023-04-27 09:06:00,,0826.6,4.99,0.00,23.7,22.3,00.0,31.9,25.2,22.6,0000.0,0009.47,0004.39,0003.75
2023-04-27 09:07:00,,0826.6,5.00,0.00,23.7,22.3,00.0,31.9,25.3,22.7,0000.0,0009.52,0004.43,0003.79
2023-04-27 09:08:00,,0826.6,5.00,0.00,23.7,22.3,00.0,31.9,25.3,22.6,0000.0,0009.37,0004.46,0003.82
2023-04-27 09:09:00,,0826.6,5.00,0.00,23.7,22.3,00.0,32.0,25.3,22.4,0000.0,0010.16,0004.52,0003.84
2023-04-27 09:10:00,,0826.6,4.99,0.00,23.7,22.3,00.0,32.0,25.3,22.2,0000.0,0011.39,0004.56,0003.87
2023-04-27 09:11:00,,0826.6,5.00,0.00,23.7,22.3,00.0,32.0,25.3,22.1,0000.0,0011.26,0004.54,0003.88
2023-04-27 09:12:00,,0826.6,5.01,0.00,23.7,22.3,00.0,32.0,25.3,22.0,0000.0,0011.18,0004.53,0003.88
2023-04-27 09:13:00,,0826.5,5.01,0.00,23.7,22.3,00.0,32.0,25.3,22.0,0000.0,0011.31,0004.60,0003.89
2023-04-27 09:14:00,,0826.5,5.00,0.00,23.7,22.3,00.0,32.0,25.3,21.9,0000.0,0011.73,0004.63,0003.90
2023-04-27 09:15:00,,0826.6,5.01,0.00,23.7,22.4,00.0,32.0,25.3,21.8,0000.0,0011.96,0004.61,0003.91
2023-04-27 09:16:00,,0826.6,4.99,0.00,23.7,22.4,00.0,32.0,25.3,21.8,0000.0,0011.90,0004.59,0003.90
2023-04-27 09:17:00,,0826.6,4.99,0.00,23.7,22.4,00.0,32.0,25.4,21.7,0000.0,0011.21,0004.50,0003.87
2023-04-27 09:18:00,,0826.6,4.99,0.00,23.7,22.4,00.0,32.0,25.4,21.3,0000.0,0011.12,0004.44,0003.83
2023-04-27 09:19:00,,0826.6,5.01,0.00,23.7,22.4,00.0,32.0,25.4,21.5,0000.0,0011.40,0004.44,0003.80
2023-04-27 09:20:00,,0826.6,5.01,0.00,23.8,22.4,00.0,32.0,25.4,21.7,0000.0,0010.78,0004.40,0003.79
2023-04-27 09:21:00,,0826.6,5.00,0.00,23.8,22.4,00.0,32.0,25.4,21.8,0000.0,0009.77,0004.36,0003.79
2023-04-27 09:22:00,,0826.6,5.00,0.00,23.8,22.4,00.0,32.1,25.4,21.7,0000.0,0009.86,0004.34,0003.78
2023-04-27 09:23:00,,0826.6,5.01,0.00,23.8,22.4,00.0,32.1,25.5,21.3,0000.0,0009.99,0004.32,0003.76
2023-04-27 09:24:00,,0826.6,4.99,0.00,23.8,22.4,00.0,32.1,25.4,21.1,0000.0,0009.88,0004.29,0003.75
2023-04-27 09:25:00,,0826.6,4.99,0.00,23.8,22.5,00.0,32.1,25.4,21.0,0000.0,0009.56,0004.26,0003.73
2023-04-27 09:26:00,,0826.6,5.00,0.00,23.8,22.5,00.0,32.1,25.4,20.5,0000.0,0009.11,0004.23,0003.70
2023-04-27 09:27:00,,0826.6,5.01,0.00,23.8,22.4,00.0,32.1,25.5,20.7,0000.0,0008.73,0004.22,0003.68
2023-04-27 09:28:00,,0826.6,5.01,0.00,23.8,22.4,00.0,32.1,25.5,20.7,0000.0,0008.71,0004.21,0003.68
2023-04-27 09:29:00,,0826.6,5.01,0.00,23.8,22.4,00.0,32.1,25.5,20.7,0000.0,0008.73,0004.20,0003.67
2023-04-27 09:30:00,,0826.6,5.00,0.00,23.8,22.4,00.0,32.1,25.5,20.8,0000.0,0008.40,0004.17,0003.66
2023-04-27 09:31:00,,0826.6,5.00,0.00,23.8,22.4,00.0,32.1,25.5,20.8,0000.0,0007.67,0004.15,0003.65
2023-04-27 09:32:00,,0826.6,4.99,0.00,23.8,22.4,00.0,32.1,25.5,20.9,0000.0,0008.49,0004.14,0003.62
2023-04-27 09:33:00,,0826.6,4.99,0.00,23.8,22.4,00.0,32.1,25.5,20.7,0000.0,0009.04,0004.15,0003.60
2023-04-27 09:34:00,,0826.5,4.99,0.00,23.8,22.4,00.0,32.1,25.5,20.5,0000.0,0009.18,0004.18,0003.59
2023-04-27 09:35:00,,0826.4,5.00,0.00,23.8,22.4,00.0,32.1,25.5,20.4,0000.0,0009.47,0004.17,0003.58
2023-04-27 09:36:00,,0826.4,5.00,0.00,23.8,22.4,00.0,32.1,25.5,20.3,0000.0,0009.41,0004.18,0003.59
2023-04-27 09:37:00,,0826.4,5.00,0.00,23.8,22.5,00.0,32.2,25.5,20.3,0000.0,0009.45,0004.19,0003.59
2023-04-27 09:38:00,,0826.4,5.00,0.00,23.9,22.5,00.0,32.2,25.5,20.1,0000.0,0009.56,0004.17,0003.58
2023-04-27 09:39:00,,0826.4,5.00,0.00,23.9,22.5,00.0,32.2,25.5,19.8,0000.0,0009.64,0004.14,0003.56
2023-04-27 09:40:00,,0826.4,5.00,0.00,23.9,22.5,00.0,32.2,25.5,19.7,0000.0,0009.66,0004.13,0003.55
2023-04-27 09:41:00,,0826.4,5.01,0.00,23.9,22.5,00.0,32.2,25.5,19.6,0000.0,0009.90,0004.13,0003.53
2023-04-27 09:42:00,,0826.5,4.99,0.00,23.9,22.5,00.0,32.2,25.5,19.7,0000.0,0010.29,0004.07,0003.50
2023-04-27 09:43:00,,0826.5,4.99,0.00,23.9,22.5,00.0,32.2,25.5,20.0,0000.0,0009.59,0004.02,0003.49
2023-04-27 09:44:00,,0826.4,5.00,0.00,23.9,22.5,00.0,32.2,25.5,19.9,0000.0,0008.89,0003.98,0003.48
2023-04-27 09:45:00,,0826.4,5.00,0.00,23.9,22.5,00.0,32.2,25.5,20.0,0000.0,0008.77,0003.92,0003.47
2023-04-27 09:46:00,,0826.4,5.00,0.00,23.9,22.5,00.0,32.2,25.5,20.3,0000.0,0008.97,0003.88,0003.47
2023-04-27 09:47:00,,0826.4,5.01,0.00,23.9,22.5,00.0,32.2,25.5,20.4,0000.0,0008.97,0003.88,0003.46
2023-04-27 09:48:00,,0826.4,5.00,0.00,23.9,22.5,00.0,32.2,25.5,20.2,0000.0,0009.13,0003.89,0003.45
2023-04-27 09:49:00,,0826.4,4.99,0.00,23.9,22.5,00.0,32.2,25.5,19.7,0000.0,0009.96,0003.90,0003.45
2023-04-27 09:50:00,,0826.4,4.99,0.00,23.9,22.5,00.0,32.2,25.5,19.1,0000.0,0009.88,0003.91,0003.44
2023-04-27 09:51:00,,0826.4,4.99,0.00,23.9,22.5,00.0,32.2,25.5,17.6,0000.0,0009.82,0003.90,0003.41
2023-04-27 09:52:00,,0826.4,5.01,0.00,23.9,22.5,00.0,32.2,25.5,16.9,0000.0,0009.50,0003.83,0003.35
2023-04-27 09:53:00,,0826.4,5.00,0.00,23.9,22.5,00.0,32.2,25.5,16.7,0000.0,0009.08,0003.82,0003.32
2023-04-27 09:54:00,,0826.4,5.00,0.00,23.9,22.5,00.0,32.2,25.5,16.6,0000.0,0009.03,0003.78,0003.26
2023-04-27 09:55:00,,0826.4,5.00,0.00,23.9,22.5,00.0,32.2,25.5,16.7,0000.0,0008.83,0003.74,0003.22
2023-04-27 09:56:00,,0826.4,5.00,0.00,23.9,22.5,00.0,32.2,25.5,16.8,0000.0,0008.53,0003.67,0003.17
2023-04-27 09:57:00,,0826.4,5.01,0.00,23.9,22.5,00.0,32.2,25.5,16.6,0000.0,0007.98,0003.63,0003.13
2023-04-27 09:58:00,,0826.4,5.00,0.00,23.9,22.5,00.0,32.2,25.5,17.1,0000.0,0007.75,0003.59,0003.05
2023-04-27 09:59:00,,0826.4,5.00,0.00,23.9,22.4,00.0,32.2,25.5,17.0,0000.0,0007.63,0003.52,0002.94
